Location: Powder Track
(41.8531°N, 72.3584°W)
Time: 09:22:36
(UTC+00:00)

Transit 4A - Pass Details

Date: 08 August 2021
Orbit: 871 x 974 km, 66.8° (Epoch: 20 September)

Event Time Altitude Azimuth Distance (km) Brightness Sun altitude
Rises 01:13:44 0° 152° (SSE) 3,490 - -12.8°
Reaches altitude 10° 01:18:07 10° 121° (ESE) 2,537 - -13.5°
Maximum altitude 01:20:02 12° 102° (ESE) 2,413 - -13.7°
Exits shadow 01:21:30 11° 86° (E) 2,481 9.7 -14.0°
Drops below altitude 10° 01:21:57 10° 82° (E) 2,530 9.8 -14.0°
Sets 01:26:17 0° 52° (NE) 3,465 10.8 -14.7°
